Location: Broletto
(44.6000°N, 10.5833°E)
Time: 02:35:25
(UTC+00:00)

SL-08 RB Rocket - Pass Details

Date: 18 April 2021
Orbit: 646 x 685 km, 97.8° (Epoch: 08 May)

Event Time Altitude Azimuth Distance (km) Brightness Sun altitude
Rises 18:31:06 0° 171° (S) 3,034 6.8 -5.0°
Reaches altitude 10° 18:33:21 10° 173° (S) 2,121 6.0 -5.4°
Maximum altitude 18:37:59 72° 258° (WSW) 721 4.1 -6.1°
Drops below altitude 10° 18:42:38 10° 343° (NNW) 2,123 6.9 -6.9°
Sets 18:44:53 0° 346° (NNW) 3,036 7.7 -7.3°
